Location: Tabor
(49.4170°N, 14.6670°E)
Time: 10:41:34
(UTC+02:00)

ISS - Pass Details

Date: 26 May 2021
Orbit: 417 x 422 km, 51.6° (Epoch: 13 June)

Event Time Altitude Azimuth Distance (km) Brightness Sun altitude
Rises 23:01:38 0° 289° (WNW) 2,367 0.8 -14.7°
Reaches altitude 10° 23:03:47 10° 282° (WNW) 1,502 -0.4 -14.8°
Maximum altitude 23:07:00 42° 210° (SSW) 609 -3.2 -15.1°
Enters shadow 23:07:52 34° 170° (S) 714 -3.1 -15.1°
